Location: Doughton Park
(36.4224°N, 81.1835°W)
Time: 18:00:12
(UTC-04:00)

ISS - All Passes

Search period start: 30 September 2016 00:00
Search period end: 10 October 2016 00:00
Orbit: 400 x 410 km, 51.6° (Epoch: 01 October)

Date Brightness Start Highest point End Pass type
(mag) Time Alt. Az. Time Alt. Az. Time Alt. Az.
30 Sep - 02:18:29 10° NNW 02:21:14 24° NNE 02:23:59 10° E night (unlit)
30 Sep - 03:54:46 10° WNW 03:57:44 31° SW 04:00:42 10° SSE night (unlit)
30 Sep - 18:56:49 10° S 18:59:30 24° SE 19:02:13 10° ENE daylight
30 Sep - 20:33:02 10° W 20:35:54 28° NNW 20:38:47 10° NNE visible
01 Oct - 01:26:52 10° NNW 01:28:55 16° NNE 01:31:00 10° ENE night (unlit)
01 Oct - 03:02:27 10° NW 03:05:43 70° SW 03:08:59 10° SE night (unlit)
01 Oct - 18:06:15 10° SSE 18:07:36 12° SE 18:08:56 10° ESE daylight
01 Oct - 19:40:32 10° WSW 19:43:43 53° NW 19:46:55 10° NE visible
01 Oct - 21:20:07 10° NNW 21:20:49 10° NNW 21:21:30 10° N visible
02 Oct - 00:35:41 10° N 00:36:31 11° NNE 00:37:23 10° NE night (unlit)
02 Oct - 02:10:23 10° NW 02:13:37 55° NE 02:16:50 10° ESE night (unlit)
02 Oct - 03:48:24 10° WSW 03:49:44 12° SW 03:51:04 10° SSW night (unlit)
02 Oct - 18:48:22 10° SW 18:51:36 71° SE 18:54:50 10° NE daylight
02 Oct - 20:26:24 10° WNW 20:28:24 15° NNW 20:30:24 10° NNE visible
03 Oct - 01:18:29 10° NNW 01:21:24 29° NNE 01:24:20 10° E night (unlit)
03 Oct - 02:55:05 10° WNW 02:57:48 24° SW 03:00:31 10° S night (unlit)
03 Oct - 17:56:37 10° SSW 17:59:33 32° SE 18:02:29 10° ENE daylight
03 Oct - 19:33:22 10° W 19:36:03 23° NNW 19:38:46 10° NNE visible
04 Oct - 00:26:45 10° NNW 00:29:06 18° NNE 00:31:27 10° ENE night (unlit)
04 Oct - 02:02:35 10° WNW 02:05:46 51° SW 02:08:58 10° SSE night (unlit)
04 Oct - 17:05:32 10° SSE 17:07:34 16° SE 17:09:37 10° E daylight
04 Oct - 18:40:42 10° WSW 18:43:47 41° NW 18:46:54 10° NE daylight
04 Oct - 23:35:16 10° N 23:36:42 12° NNE 23:38:07 10° NE night (unlit)
05 Oct - 01:10:24 10° NW 01:13:40 72° NE 01:16:56 10° SE night (unlit)
05 Oct - 17:48:22 10° SW 17:51:36 86° NW 17:54:51 10° NE daylight
05 Oct - 19:26:53 10° NW 19:28:31 13° NNW 19:30:09 10° N visible
06 Oct - 00:18:24 10° NNW 00:21:27 36° NE 00:24:31 10° ESE night (unlit)
06 Oct - 01:55:22 10° W 01:57:45 19° SW 02:00:07 10° S night (unlit)
06 Oct - 16:56:25 10° SSW 16:59:30 42° SE 17:02:35 10° ENE daylight
06 Oct - 18:33:38 10° W 18:36:06 20° NNW 18:38:35 10° NNE daylight
06 Oct - 23:26:34 10° NNW 23:29:08 21° NNE 23:31:44 10° E night (unlit)
07 Oct - 01:02:38 10° WNW 01:05:43 38° SW 01:08:47 10° SSE night (unlit)
07 Oct - 16:04:58 10° S 16:07:26 20° SE 16:09:56 10° E daylight
07 Oct - 17:40:47 10° WSW 17:43:46 33° NW 17:46:45 10° NNE daylight
07 Oct - 22:34:55 10° N 22:36:44 14° NNE 22:38:32 10° ENE night (unlit)
08 Oct - 00:10:19 10° NW 00:13:35 86° SW 00:16:52 10° SE night (unlit)
08 Oct - 16:48:17 10° WSW 16:51:31 65° NW 16:54:45 10° NE daylight
08 Oct - 18:27:20 10° NW 18:28:31 11° NNW 18:29:42 10° N daylight
08 Oct - 23:18:13 10° NW 23:21:22 45° NE 23:24:32 10° ESE night (unlit)
09 Oct - 00:55:41 10° W 00:57:34 14° SW 00:59:26 10° SSW night (unlit)
09 Oct - 15:56:09 10° SW 15:59:20 57° SE 16:02:32 10° ENE daylight
09 Oct - 17:33:50 10° WNW 17:36:03 17° NNW 17:38:16 10° NNE daylight
09 Oct - 22:26:16 10° NNW 22:29:03 25° NNE 22:31:51 10° E night (unlit)
